• In Netherlands
  • List of Countries
  • For 7 days
  • Water Temperature
  • Satellite Maps
  • Weather Map
  • Weather Widgets
  • user-avatar
    Login

    Hourly Weather Oran

    Today, 22 January, Sunday

    Time Temperature Precipitation Wind Pressure Humidity
    00:00 +8°C° 0 mm 10 mps 748 mmHg 90%
    01:00 +8°C° 1.4 mm 10 mps 748 mmHg 88%
    02:00 +8°C° 1.4 mm 11 mps 748 mmHg 87%
    03:00 +8°C° 1.4 mm 11 mps 748 mmHg 85%
    04:00 +8°C° 1.2 mm 10 mps 748 mmHg 85%
    05:00 +8°C° 1.2 mm 10 mps 748 mmHg 85%
    06:00 +8°C° 0 mm 9 mps 748 mmHg 86%
    07:00 +8°C° 0.8 mm 9 mps 748 mmHg 84%
    08:00 +8°C° 0.8 mm 9 mps 749 mmHg 82%
    09:00 +10°C° 0.8 mm 9 mps 749 mmHg 80%
    10:00 +10°C° 0.5 mm 9 mps 750 mmHg 77%
    11:00 +10°C° 0.5 mm 8 mps 750 mmHg 75%
    12:00 +11°C° 0.5 mm 8 mps 750 mmHg 72%
    13:00 +11°C° 0.4 mm 8 mps 750 mmHg 72%
    14:00 +11°C° 0.4 mm 7 mps 750 mmHg 71%
    15:00 +11°C° 0.4 mm 7 mps 750 mmHg 70%
    16:00 +10°C° 0.3 mm 7 mps 750 mmHg 74%
    17:00 +9°C° 0.3 mm 6 mps 751 mmHg 78%
    18:00 +9°C° 0.3 mm 6 mps 751 mmHg 82%
    19:00 +9°C° 0.5 mm 6 mps 751 mmHg 83%
    20:00 +8°C° 0.5 mm 6 mps 751 mmHg 84%
    21:00 +8°C° 0.5 mm 6 mps 752 mmHg 84%
    22:00 +8°C° 0.6 mm 6 mps 752 mmHg 84%
    23:00 +8°C° 0.6 mm 6 mps 752 mmHg 84%

    Tomorrow, 23 January, Monday

    Time Temperature Precipitation Wind Pressure Humidity
    00:00 +8°C° 0.6 mm 6 mps 752 mmHg 84%
    01:00 +8°C° 0.7 mm 6 mps 752 mmHg 85%
    02:00 +8°C° 0.7 mm 6 mps 752 mmHg 85%
    03:00 +8°C° 0.7 mm 5 mps 752 mmHg 86%
    04:00 +8°C° 0.5 mm 5 mps 752 mmHg 86%
    05:00 +8°C° 0.5 mm 5 mps 752 mmHg 87%
    06:00 +7°C° 0.5 mm 5 mps 752 mmHg 87%
    07:00 +8°C° 0.4 mm 4 mps 753 mmHg 85%
    08:00 +8°C° 0.4 mm 4 mps 753 mmHg 82%
    09:00 +10°C° 0.4 mm 4 mps 753 mmHg 80%
    10:00 +10°C° 0.4 mm 5 mps 754 mmHg 77%
    11:00 +10°C° 0.4 mm 5 mps 754 mmHg 73%
    12:00 +12°C° 0.4 mm 5 mps 754 mmHg 70%
    13:00 +12°C° 0.4 mm 5 mps 753 mmHg 70%
    14:00 +11°C° 0.4 mm 6 mps 753 mmHg 70%
    15:00 +11°C° 0.4 mm 6 mps 753 mmHg 70%
    16:00 +10°C° 0.2 mm 5 mps 753 mmHg 75%
    17:00 +10°C° 0.2 mm 4 mps 754 mmHg 80%
    18:00 +8°C° 0.2 mm 4 mps 754 mmHg 85%
    19:00 +8°C° 0.3 mm 4 mps 754 mmHg 85%
    20:00 +7°C° 0.3 mm 4 mps 755 mmHg 86%
    21:00 +7°C° 0.3 mm 4 mps 755 mmHg 86%
    22:00 +7°C° 0.4 mm 4 mps 755 mmHg 86%
    23:00 +7°C° 0.4 mm 4 mps 755 mmHg 86%

    Day after tomorrow, 24 January, Tuesday

    Time Temperature Precipitation Wind Pressure Humidity
    00:00 +7°C° 0.4 mm 4 mps 755 mmHg 86%
    01:00 +7°C° 0.5 mm 4 mps 755 mmHg 87%
    02:00 +7°C° 0.5 mm 4 mps 755 mmHg 87%
    03:00 +7°C° 0.5 mm 4 mps 755 mmHg 88%
    04:00 +7°C° 0.5 mm 5 mps 755 mmHg 88%
    05:00 +7°C° 0.5 mm 5 mps 755 mmHg 89%
    06:00 +7°C° 0.5 mm 5 mps 755 mmHg 89%
    07:00 +8°C° 0.4 mm 5 mps 756 mmHg 86%
    08:00 +8°C° 0.4 mm 5 mps 756 mmHg 84%
    09:00 +9°C° 0.4 mm 6 mps 757 mmHg 81%
    10:00 +10°C° 0.2 mm 6 mps 757 mmHg 77%
    11:00 +10°C° 0.2 mm 6 mps 757 mmHg 74%
    12:00 +11°C° 0.2 mm 6 mps 757 mmHg 70%
    13:00 +11°C° 0.1 mm 6 mps 757 mmHg 70%
    14:00 +11°C° 0.1 mm 6 mps 757 mmHg 71%
    15:00 +11°C° 0.1 mm 6 mps 756 mmHg 71%
    16:00 +10°C° 0 mm 6 mps 757 mmHg 75%
    17:00 +9°C° 0 mm 6 mps 757 mmHg 78%
    18:00 +8°C° 0 mm 5 mps 757 mmHg 82%
    19:00 +8°C° 0 mm 5 mps 757 mmHg 82%
    20:00 +8°C° 0 mm 5 mps 758 mmHg 81%
    21:00 +7°C° 0 mm 5 mps 758 mmHg 80%
    22:00 +7°C° 0 mm 5 mps 758 mmHg 79%
    23:00 +7°C° 0 mm 5 mps 758 mmHg 78%

    25 January, Wednesday

    Time Temperature Precipitation Wind Pressure Humidity
    00:00 +7°C° 0 mm 5 mps 758 mmHg 77%
    01:00 +7°C° 0 mm 5 mps 757 mmHg 75%
    02:00 +6°C° 0 mm 5 mps 757 mmHg 74%
    03:00 +6°C° 0 mm 5 mps 757 mmHg 72%
    04:00 +6°C° 0 mm 5 mps 757 mmHg 71%
    05:00 +6°C° 0 mm 5 mps 757 mmHg 69%
    06:00 +6°C° 0 mm 5 mps 757 mmHg 68%
    07:00 +7°C° 0 mm 5 mps 757 mmHg 65%
    08:00 +8°C° 0 mm 5 mps 757 mmHg 62%
    09:00 +9°C° 0 mm 5 mps 757 mmHg 59%
    10:00 +12°C° 0 mm 5 mps 757 mmHg 52%
    11:00 +13°C° 0 mm 4 mps 756 mmHg 46%
    12:00 +15°C° 0 mm 4 mps 756 mmHg 39%
    13:00 +15°C° 0 mm 4 mps 756 mmHg 40%
    14:00 +15°C° 0 mm 4 mps 755 mmHg 41%
    15:00 +15°C° 0 mm 4 mps 754 mmHg 41%
    16:00 +13°C° 0 mm 4 mps 754 mmHg 50%
    17:00 +11°C° 0 mm 3 mps 754 mmHg 59%
    18:00 +8°C° 0 mm 3 mps 755 mmHg 68%
    19:00 +8°C° 0 mm 3 mps 755 mmHg 69%
    20:00 +8°C° 0 mm 3 mps 755 mmHg 70%
    21:00 +8°C° 0 mm 3 mps 756 mmHg 71%
    22:00 +7°C° 0 mm 3 mps 756 mmHg 72%
    23:00 +7°C° 0 mm 3 mps 755 mmHg 72%

    26 January, Thursday

    Time Temperature Precipitation Wind Pressure Humidity
    00:00 +7°C° 0 mm 3 mps 755 mmHg 72%
    01:00 +7°C° 0 mm 3 mps 755 mmHg 71%
    02:00 +7°C° 0 mm 3 mps 755 mmHg 70%
    03:00 +7°C° 0 mm 3 mps 755 mmHg 69%
    04:00 +7°C° 0 mm 3 mps 755 mmHg 69%
    05:00 +7°C° 0 mm 3 mps 755 mmHg 68%
    06:00 +7°C° 0 mm 2 mps 755 mmHg 68%
    07:00 +9°C° 0 mm 2 mps 756 mmHg 61%
    08:00 +12°C° 0 mm 2 mps 756 mmHg 54%
    09:00 +14°C° 0 mm 2 mps 756 mmHg 47%
    10:00 +15°C° 0 mm 2 mps 756 mmHg 44%
    11:00 +16°C° 0 mm 1 mps 756 mmHg 41%
    12:00 +19°C° 0 mm 1 mps 756 mmHg 38%
    13:00 +19°C° 0 mm 1 mps 755 mmHg 39%
    14:00 +18°C° 0 mm 2 mps 755 mmHg 40%
    15:00 +18°C° 0 mm 2 mps 754 mmHg 41%
    16:00 +16°C° 0 mm 3 mps 754 mmHg 50%
    17:00 +13°C° 0 mm 3 mps 755 mmHg 60%
    18:00 +11°C° 0 mm 4 mps 755 mmHg 69%
    19:00 +10°C° 0 mm 4 mps 755 mmHg 71%
    20:00 +8°C° 0 mm 4 mps 755 mmHg 73%
    21:00 +9°C° 0 mm 3 mps 756 mmHg 75%
    22:00 +8°C° 0 mm 3 mps 756 mmHg 75%
    23:00 +8°C° 0 mm 3 mps 756 mmHg 74%

    27 January, Friday

    Time Temperature Precipitation Wind Pressure Humidity
    00:00 +8°C° 0 mm 3 mps 755 mmHg 74%
    01:00 +8°C° 0 mm 3 mps 755 mmHg 71%
    02:00 +8°C° 0 mm 3 mps 755 mmHg 69%
    03:00 +8°C° 0 mm 3 mps 755 mmHg 66%
    04:00 +8°C° 0 mm 3 mps 755 mmHg 62%
    05:00 +8°C° 0 mm 3 mps 755 mmHg 58%
    06:00 +7°C° 0 mm 3 mps 755 mmHg 55%
    07:00 +9°C° 0 mm 3 mps 755 mmHg 52%
    08:00 +10°C° 0 mm 3 mps 755 mmHg 50%
    09:00 +11°C° 0 mm 3 mps 755 mmHg 47%
    10:00 +13°C° 0 mm 3 mps 755 mmHg 43%
    11:00 +14°C° 0 mm 3 mps 754 mmHg 38%
    12:00 +17°C° 0 mm 3 mps 754 mmHg 33%
    13:00 +17°C° 0 mm 4 mps 753 mmHg 34%
    14:00 +18°C° 0 mm 4 mps 753 mmHg 35%
    15:00 +17°C° 0 mm 5 mps 753 mmHg 36%
    16:00 +15°C° 0 mm 5 mps 753 mmHg 43%
    17:00 +13°C° 0 mm 5 mps 753 mmHg 50%
    18:00 +10°C° 0 mm 6 mps 753 mmHg 58%
    19:00 +10°C° 0 mm 6 mps 753 mmHg 57%
    20:00 +10°C° 0 mm 6 mps 754 mmHg 56%
    21:00 +10°C° 0 mm 6 mps 754 mmHg 55%
    22:00 +9°C° 0 mm 5 mps 754 mmHg 53%
    23:00 +9°C° 0 mm 5 mps 754 mmHg 50%
    Show more